Regional Weather Roundup
Issued by NWS Midland/Odessa, TX

Home | Current Version | Previous Version | Text Only | Print | Product List | Glossary On
Versions: 1 2 3 4 5 6 7 8 9 10 11 12 13 14 15 16 17 18 19 20 21 22 23 24 25 26 27 28 29 30 31 32 33 34 35 36 37 38 39 40 41 42 43 44 45 46 47 48 49 50
000
ASUS44 KMAF 302310
RWRMAF
MIDLAND AREA WEATHER ROUNDUP
NATIONAL WEATHER SERVICE MIDLAND TX
600 PM CDT THU OCT 30 2014

...IN SOUTHWEST TEXAS AND SOUTHEAST NEW MEXICO...

CITY           SKY/WX    TMP DP  RH WIND       PRES   REMARKS
ALPINE         SUNNY     77  38  25 N12G17    30.25R
ANDREWS        FAIR      75  42  30 NE10G26   30.15R
ARTESIA        NOT AVBL
BIG SPRING     SUNNY     82  48  31 NE6       30.12S
CARLSBAD       SUNNY     79  42  26 N12       30.15F
DRYDEN           N/A     84  57  39 E9        30.05R
FORT STOCKTON  SUNNY     82  30  15 NW13      30.12S
GUAD PASS      SUNNY     69  30  23 NE21      30.27S
HOBBS          SUNNY     73  45  35 N16G22    30.19R
MARFA          SUNNY     75  41  29 N17       30.22S
MIDLAND AIRPK  SUNNY     80  35  19 N10       30.12R
MIDLAND INTL   SUNNY     81  33  17 N12       30.10R
ODESSA         SUNNY     80  33  18 N14       30.12R
PECOS          SUNNY     80  41  25 NW13      30.11S
PRESIDIO       FAIR      85  52  31 CALM      30.06S
SEMINOLE       SUNNY     74  45  35 NE14      30.18R
SNYDER         PTCLDY    75  58  56 NE8       30.14R
WINK           SUNNY     82  36  19 NE13      30.10S
$$
...OTHER STATIONS IN TEXAS...

CITY           SKY/WX    TMP DP  RH WIND       PRES   REMARKS
ABILENE        CLEAR     81  58  45 N13       30.08R
AMARILLO       CLEAR     68  30  24 N13       30.26R
AUSTIN         PTCLDY    80  60  50 N5        30.04S
BROWNSVILLE    CLEAR     82  69  64 E10       30.01R
CORPUS CHRISTI MOCLDY    80  70  71 E13       30.02R
DALLAS FTW     MOCLDY    76  54  46 SE6       30.06F
DEL RIO        SUNNY     85  62  46 SE6       30.01S
EL PASO        MOSUNNY   81  35  19 N8        30.15S
HOUSTON INT    PTCLDY    76  53  44 N7        30.05S
LUBBOCK        MOSUNNY   73  40  30 NE16G23   30.19R
SAN ANGELO     MOSUNNY   85  54  34 NE7       30.04S
SAN ANTONIO    PTCLDY    83  60  45 CALM      30.03F
WACO           CLEAR     73  53  49 E6        30.06F
WICHITA FALLS  NOT AVBL
$$
...OTHER LOCATIONS IN NEW MEXICO...

CITY           SKY/WX    TMP DP  RH WIND       PRES   REMARKS
ALAMAGORDO     NOT AVBL
ALBUQUERQUE    SUNNY     72  17  12 S5        30.26F
CANNON AFB     SUNNY     70  27  19 NE16      30.27R
CLOVIS         SUNNY     70  27  19 NE15      30.29S
HOLLOMAN AFB   SUNNY     78  32  18 S6        30.17R
ROSWELL        SUNNY     78  30  17 NE12      30.20S
RUIDOSO        SUNNY     63  27  25 SE10      30.38S
SANTA FE       SUNNY     70  13  11 S12       30.31S
TRUTH OR CONSE SUNNY     77  19  11 N6        30.20F
TUCUMCARI      SUNNY     70  22  16 NE10      30.27R
$$



USA.gov is the U.S. government's official web portal to all federal, state and local government web resources and services.